Location: Molveno
(46.1500°N, 10.9667°E)
Time: 16:14:14
(UTC+00:00)

Cosmos 1680 Rocket - Pass Details

Date: 05 July 2020
Orbit: 760 x 781 km, 74.1° (Epoch: 10 August)

Event Time Altitude Azimuth Distance (km) Brightness Sun altitude
Exits shadow 21:35:40 29° 163° (SSE) 1,391 4.3 -17.2°
Maximum altitude 21:38:01 50° 105° (ESE) 991 3.8 -17.3°
Drops below altitude 10° 21:43:09 10° 31° (NNE) 2,345 6.5 -17.7°
Sets 21:45:36 0° 27° (NNE) 3,277 7.4 -17.9°
